M I D A S
Marine Information and Data Acquisition System
Tripno 2207 of the Zeeleeuw from 2011-10-27 06:42:40 to 2011-10-27 15:51:38
Back to CruiseResearch ActivitiesStationsMapUnderway DataData graphs

EquipmentUnitsComments
TimeDGPSUTC
LatitudeDGPSDM.mWGS84
LongitudeDGPSDM.mWGS84
SpeedMeteo Stationm/sRelative wind speed
DirectionMeteo StationdegRelative wind direction
TemperatureMeteo Stationdeg CelciusAir temperature
PressureMeteo StationPaAtmospheric pressure
HumidityMeteo Station%Relative humidity
Missing or incorrect values are displayed as -999
Metereological data collected by the RV Zeeleeuw from 2011-10-27 06:36:40 to 2011-10-27 16:01:03
                                                                                    Next 1000 lines
Time Latitude Longitude Speed Direction Temperature Pressure Humidity
2011-10-27 06:36:50 51°13.637 2°56.019 2.9 325 10.6 100880 43
2011-10-27 06:36:55 51°13.637 2°56.019 2.9 300 10.6 100880 43
2011-10-27 06:37:00 51°13.636 2°56.019 3.1 326 10.6 100880 45
2011-10-27 06:37:05 51°13.636 2°56.019 4.5 332 10.6 100880 45
2011-10-27 06:37:10 51°13.636 2°56.019 6.1 332 10.6 100880 45
2011-10-27 06:37:15 51°13.636 2°56.019 5.2 337 10.6 100880 45
2011-10-27 06:37:20 51°13.636 2°56.019 3.9 350 10.6 100880 45
2011-10-27 06:37:25 51°13.636 2°56.018 4.4 339 10.6 100880 45
2011-10-27 06:37:30 51°13.636 2°56.018 6.8 334 10.6 100890 46
2011-10-27 06:37:35 51°13.636 2°56.019 5.3 333 10.6 100890 46
2011-10-27 06:37:40 51°13.636 2°56.019 4.3 330 10.6 100880 45
2011-10-27 06:37:45 51°13.636 2°56.019 4.3 304 10.6 100880 45
2011-10-27 06:37:50 51°13.636 2°56.019 3.1 338 10.6 100880 46
2011-10-27 06:37:55 51°13.636 2°56.018 4 343 10.6 100880 46
2011-10-27 06:38:00 51°13.635 2°56.018 2.8 340 10.6 100880 45
2011-10-27 06:38:05 51°13.635 2°56.018 4 342 10.6 100880 45
2011-10-27 06:38:10 51°13.635 2°56.018 3.4 330 10.6 100880 45
2011-10-27 06:38:15 51°13.635 2°56.018 3.2 339 10.6 100880 45
2011-10-27 06:38:20 51°13.635 2°56.018 3.8 344 10.6 100880 46
2011-10-27 06:38:25 51°13.636 2°56.017 2.6 341 10.6 100880 46
2011-10-27 06:38:30 51°13.636 2°56.016 2.7 347 10.6 100880 46
2011-10-27 06:38:35 51°13.636 2°56.014 1.2 337 10.6 100880 46
2011-10-27 06:38:40 51°13.636 2°56.012 1.8 344 10.6 100880 46
2011-10-27 06:38:45 51°13.637 2°56.008 4.2 347 10.6 100880 46
2011-10-27 06:38:50 51°13.638 2°56.005 3.9 346 10.6 100880 46
2011-10-27 06:38:56 51°13.638 2°56.001 3 338 10.6 100880 46
2011-10-27 06:39:01 51°13.64 2°55.997 2.8 345 10.6 100890 46
2011-10-27 06:39:08 51°13.641 2°55.99 1.7 348 10.6 100890 46
2011-10-27 06:39:13 51°13.643 2°55.985 1.2 333 10.6 100880 46
2011-10-27 06:39:19 51°13.644 2°55.979 3.1 346 10.6 100880 46
2011-10-27 06:39:23 51°13.646 2°55.975 3.3 349 10.6 100880 45
2011-10-27 06:39:28 51°13.647 2°55.969 3.3 348 10.6 100880 45
2011-10-27 06:39:33 51°13.649 2°55.963 3 346 10.6 100890 43
2011-10-27 06:39:39 51°13.651 2°55.955 2.8 352 10.6 100890 43
2011-10-27 06:39:44 51°13.652 2°55.949 2.9 348 10.6 100880 45
2011-10-27 06:39:49 51°13.654 2°55.943 2.7 350 10.6 100880 45
2011-10-27 06:39:53 51°13.655 2°55.937 3.1 349 10.6 100880 46
2011-10-27 06:39:59 51°13.657 2°55.929 3 344 10.6 100880 46
2011-10-27 06:40:04 51°13.658 2°55.923 2.6 348 10.6 100880 45
2011-10-27 06:40:09 51°13.66 2°55.916 2.2 351 10.6 100880 45
2011-10-27 06:40:13 51°13.661 2°55.911 2.5 349 10.6 100880 45
2011-10-27 06:40:19 51°13.663 2°55.902 2 349 10.6 100880 45
2011-10-27 06:40:24 51°13.665 2°55.895 1.6 353 10.6 100880 45
2011-10-27 06:40:29 51°13.666 2°55.888 2.3 346 10.6 100880 45
2011-10-27 06:40:33 51°13.667 2°55.882 2.6 343 10.6 100880 45
2011-10-27 06:40:38 51°13.669 2°55.875 0.7 301 10.6 100880 45
2011-10-27 06:40:44 51°13.671 2°55.866 1.9 341 10.6 100880 46
2011-10-27 06:40:49 51°13.673 2°55.859 1.6 338 10.6 100880 46
2011-10-27 06:40:53 51°13.675 2°55.853 1.9 347 10.6 100880 45
2011-10-27 06:40:58 51°13.677 2°55.846 2.3 347 10.6 100880 45
2011-10-27 06:41:03 51°13.679 2°55.838 2.2 346 10.6 100880 45
2011-10-27 06:41:09 51°13.681 2°55.829 1.7 345 10.6 100880 45
2011-10-27 06:41:13 51°13.682 2°55.823 2 348 10.6 100880 45
2011-10-27 06:41:18 51°13.684 2°55.815 2.7 344 10.6 100880 45
2011-10-27 06:41:23 51°13.686 2°55.808 2.4 332 10.6 100880 45
2011-10-27 06:41:29 51°13.687 2°55.798 1.5 322 10.6 100880 45
2011-10-27 06:41:33 51°13.689 2°55.792 1.7 326 10.6 100880 46
2011-10-27 06:41:39 51°13.69 2°55.782 2.6 345 10.6 100880 46
2011-10-27 06:41:43 51°13.691 2°55.776 1 339 10.6 100880 45
2011-10-27 06:41:48 51°13.692 2°55.768 3.2 335 10.6 100880 45
2011-10-27 06:41:53 51°13.693 2°55.761 2.4 346 10.6 100880 45
2011-10-27 06:41:59 51°13.694 2°55.752 2.5 349 10.6 100880 45
2011-10-27 06:42:04 51°13.694 2°55.746 2 7 10.6 100880 46
2011-10-27 06:42:09 51°13.695 2°55.74 1.9 355 10.6 100880 46
2011-10-27 06:42:13 51°13.695 2°55.737 2.2 352 10.6 100880 44
2011-10-27 06:42:19 51°13.696 2°55.734 2.4 359 10.6 100880 44
2011-10-27 06:42:24 51°13.696 2°55.734 3.4 349 10.6 100880 45
2011-10-27 06:42:29 51°13.697 2°55.734 3.4 12 10.6 100880 45
2011-10-27 06:42:33 51°13.698 2°55.736 2.6 11 10.6 100880 45
2011-10-27 06:42:38 51°13.699 2°55.739 3.7 5 10.6 100880 45
2011-10-27 06:42:43 51°13.701 2°55.742 4 9 10.6 100880 46
2011-10-27 06:42:49 51°13.705 2°55.746 3.3 8 10.6 100880 46
2011-10-27 06:42:53 51°13.708 2°55.748 5.2 7 10.6 100880 45
2011-10-27 06:42:58 51°13.711 2°55.751 6.3 9 10.6 100880 45
2011-10-27 06:43:03 51°13.714 2°55.752 4.4 15 10.6 100870 45
2011-10-27 06:43:08 51°13.716 2°55.754 3.5 28 10.6 100870 45
2011-10-27 06:43:13 51°13.717 2°55.754 4.1 20 10.6 100870 46
2011-10-27 06:43:17 51°13.718 2°55.754 4.2 22 10.6 100870 46
2011-10-27 06:43:22 51°13.719 2°55.754 4.5 28 10.6 100870 45
2011-10-27 06:43:28 51°13.718 2°55.754 3.9 23 10.6 100870 45
2011-10-27 06:43:33 51°13.717 2°55.754 4.5 35 10.6 100870 45
2011-10-27 06:43:37 51°13.716 2°55.753 4.2 35 10.6 100870 45
2011-10-27 06:43:42 51°13.715 2°55.753 4.4 33 10.6 100880 45
2011-10-27 06:43:48 51°13.714 2°55.752 3.1 33 10.6 100880 45
2011-10-27 06:43:53 51°13.714 2°55.752 1.3 29 10.6 100880 45
2011-10-27 06:43:59 51°13.715 2°55.751 1.8 37 10.6 100880 45
2011-10-27 06:44:04 51°13.716 2°55.751 1 36 10.6 100880 45
2011-10-27 06:44:08 51°13.717 2°55.75 3.2 37 10.6 100880 45
2011-10-27 06:44:13 51°13.719 2°55.749 3 37 10.6 100880 46
2011-10-27 06:44:19 51°13.722 2°55.746 2.5 43 10.6 100880 46
2011-10-27 06:44:24 51°13.725 2°55.744 2.2 37 10.6 100880 46
2011-10-27 06:44:28 51°13.728 2°55.741 1.5 39 10.6 100880 46
2011-10-27 06:44:33 51°13.731 2°55.737 1.5 27 10.6 100880 46
2011-10-27 06:44:39 51°13.735 2°55.732 2.5 55 10.6 100880 46
2011-10-27 06:44:43 51°13.739 2°55.728 1.5 44 10.6 100880 46
2011-10-27 06:44:49 51°13.743 2°55.722 1.7 53 10.6 100880 46
2011-10-27 06:44:53 51°13.747 2°55.718 0.9 24 10.6 100880 44
2011-10-27 06:44:58 51°13.751 2°55.713 0.8 42 10.6 100880 44
2011-10-27 06:45:04 51°13.756 2°55.707 2 42 10.6 100880 45
2011-10-27 06:45:09 51°13.761 2°55.701 2.8 42 10.6 100880 45
2011-10-27 06:45:13 51°13.765 2°55.696 2.3 43 10.7 100880 46
2011-10-27 06:45:18 51°13.771 2°55.691 2 39 10.7 100880 46
2011-10-27 06:45:23 51°13.776 2°55.685 1.9 32 10.7 100880 46
2011-10-27 06:45:28 51°13.782 2°55.679 1.5 25 10.7 100880 46
2011-10-27 06:45:33 51°13.788 2°55.673 2.4 34 10.7 100880 46
2011-10-27 06:45:37 51°13.793 2°55.669 1.9 23 10.7 100880 46
2011-10-27 06:45:42 51°13.8 2°55.663 2.6 20 10.7 100870 45
2011-10-27 06:45:48 51°13.808 2°55.656 2.2 30 10.7 100870 45
2011-10-27 06:45:53 51°13.815 2°55.651 1.9 40 10.7 100880 45
2011-10-27 06:45:58 51°13.822 2°55.645 0.2 22 10.7 100880 45
2011-10-27 06:46:03 51°13.83 2°55.64 0.2 21 10.6 100870 45
2011-10-27 06:46:08 51°13.837 2°55.634 0.1 28 10.6 100870 45
2011-10-27 06:46:13 51°13.845 2°55.629 1.5 28 10.6 100870 46
2011-10-27 06:46:18 51°13.853 2°55.623 2.6 28 10.6 100870 46
2011-10-27 06:46:23 51°13.86 2°55.617 2.8 20 10.6 100870 45
2011-10-27 06:46:28 51°13.868 2°55.612 2.8 30 10.6 100870 45
2011-10-27 06:46:33 51°13.876 2°55.606 1.9 21 10.6 100880 46
2011-10-27 06:46:37 51°13.882 2°55.602 3.8 27 10.6 100880 46
2011-10-27 06:46:42 51°13.891 2°55.596 3.8 22 10.6 100880 45
2011-10-27 06:46:47 51°13.899 2°55.59 2.4 23 10.6 100880 45
2011-10-27 06:46:52 51°13.907 2°55.584 3.1 25 10.6 100880 46
2011-10-27 06:46:57 51°13.916 2°55.578 4.4 10 10.6 100880 46
2011-10-27 06:47:01 51°13.923 2°55.574 3.4 17 10.6 100880 46
2011-10-27 06:47:06 51°13.932 2°55.568 0.5 21 10.6 100880 46
2011-10-27 06:47:11 51°13.941 2°55.561 0.2 15 10.6 100870 45
2011-10-27 06:47:16 51°13.95 2°55.555 4 31 10.6 100870 45
2011-10-27 06:47:21 51°13.96 2°55.548 4.6 30 10.6 100870 46
2011-10-27 06:47:25 51°13.968 2°55.543 3.5 31 10.6 100870 46
2011-10-27 06:47:30 51°13.978 2°55.536 3.5 30 10.6 100870 44
2011-10-27 06:47:35 51°13.988 2°55.529 3.3 19 10.6 100870 44
2011-10-27 06:47:40 51°13.998 2°55.521 3.6 20 10.6 100870 45
2011-10-27 06:47:45 51°14.009 2°55.514 1.6 9 10.6 100870 45
2011-10-27 06:47:50 51°14.019 2°55.506 2.6 17 10.5 100870 45
2011-10-27 06:47:55 51°14.03 2°55.499 2.9 20 10.5 100870 45
2011-10-27 06:48:00 51°14.04 2°55.491 2.5 17 10.5 100870 45
2011-10-27 06:48:05 51°14.051 2°55.483 3.3 30 10.5 100870 45
2011-10-27 06:48:10 51°14.062 2°55.475 2.9 30 10.6 100870 46
2011-10-27 06:48:15 51°14.073 2°55.467 3.2 26 10.6 100870 46
2011-10-27 06:48:20 51°14.083 2°55.46 3.2 30 10.5 100870 45
2011-10-27 06:48:25 51°14.094 2°55.451 3.5 23 10.5 100870 45
2011-10-27 06:48:30 51°14.104 2°55.443 3.2 23 10.5 100870 45
2011-10-27 06:48:35 51°14.115 2°55.435 3.6 29 10.5 100870 45
2011-10-27 06:48:40 51°14.126 2°55.426 4.3 32 10.5 100870 46
2011-10-27 06:48:45 51°14.136 2°55.418 4 15 10.5 100870 46
2011-10-27 06:48:50 51°14.147 2°55.409 4.4 25 10.5 100870 45
2011-10-27 06:48:55 51°14.157 2°55.4 4.5 30 10.5 100870 45
2011-10-27 06:49:00 51°14.167 2°55.391 4.8 30 10.5 100870 46
2011-10-27 06:49:05 51°14.178 2°55.382 3.9 34 10.5 100870 46
2011-10-27 06:49:10 51°14.188 2°55.373 3.9 32 10.5 100870 45
2011-10-27 06:49:15 51°14.198 2°55.363 3.3 26 10.5 100870 45
2011-10-27 06:49:20 51°14.208 2°55.354 3.5 24 10.5 100870 45
2011-10-27 06:49:25 51°14.219 2°55.345 1.7 25 10.5 100870 45
2011-10-27 06:49:29 51°14.227 2°55.338 1.6 21 10.5 100870 46
2011-10-27 06:49:35 51°14.239 2°55.326 2.2 16 10.5 100870 46
2011-10-27 06:49:40 51°14.25 2°55.317 1.7 18 10.5 100870 46
2011-10-27 06:49:45 51°14.262 2°55.306 2 28 10.5 100870 46
2011-10-27 06:49:50 51°14.273 2°55.295 1.8 14 10.5 100870 45
2011-10-27 06:49:56 51°14.287 2°55.283 3.1 17 10.5 100870 45
2011-10-27 06:50:01 51°14.299 2°55.271 2.9 13 10.5 100870 46
2011-10-27 06:50:06 51°14.311 2°55.26 2.5 360 10.5 100870 46
2011-10-27 06:50:11 51°14.324 2°55.248 3.4 6 10.5 100870 43
2011-10-27 06:50:15 51°14.334 2°55.239 4.5 19 10.5 100870 43
2011-10-27 06:50:20 51°14.346 2°55.227 5 22 10.5 100870 46
2011-10-27 06:50:25 51°14.359 2°55.215 3.6 19 10.5 100870 46
2011-10-27 06:50:30 51°14.371 2°55.202 2.7 23 10.5 100870 46
2011-10-27 06:50:35 51°14.384 2°55.19 4.4 14 10.5 100870 46
2011-10-27 06:50:40 51°14.397 2°55.178 3.3 8 10.5 100870 46
2011-10-27 06:50:45 51°14.409 2°55.165 2.4 9 10.5 100870 46
2011-10-27 06:50:50 51°14.422 2°55.152 2 4 10.5 100860 45
2011-10-27 06:50:55 51°14.434 2°55.139 2.2 6 10.5 100860 45
2011-10-27 06:51:00 51°14.447 2°55.127 2.5 14 10.5 100870 45
2011-10-27 06:51:05 51°14.46 2°55.113 3.6 20 10.5 100870 45
2011-10-27 06:51:10 51°14.472 2°55.1 3 22 10.5 100870 46
2011-10-27 06:51:15 51°14.484 2°55.086 2 25 10.5 100870 46
2011-10-27 06:51:20 51°14.497 2°55.072 2.3 25 10.5 100870 45
2011-10-27 06:51:25 51°14.509 2°55.058 3 23 10.5 100870 45
2011-10-27 06:51:30 51°14.522 2°55.044 3 24 10.5 100870 46
2011-10-27 06:51:35 51°14.534 2°55.028 2.6 5 10.5 100870 46
2011-10-27 06:51:40 51°14.546 2°55.012 1.9 10 10.5 100870 45
2011-10-27 06:51:45 51°14.557 2°54.996 1.6 356 10.5 100870 45
2011-10-27 06:51:50 51°14.569 2°54.98 2.3 352 10.4 100870 45
2011-10-27 06:51:55 51°14.581 2°54.964 1.9 13 10.4 100870 45
2011-10-27 06:52:00 51°14.593 2°54.948 2.7 6 10.5 100870 45
2011-10-27 06:52:05 51°14.605 2°54.932 2.4 21 10.5 100870 45
2011-10-27 06:52:10 51°14.617 2°54.916 2.1 18 10.5 100870 46
2011-10-27 06:52:15 51°14.629 2°54.9 2.6 19 10.5 100870 46
2011-10-27 06:52:20 51°14.641 2°54.884 2.5 17 10.4 100870 45
2011-10-27 06:52:25 51°14.653 2°54.869 0.9 15 10.4 100870 45
2011-10-27 06:52:30 51°14.665 2°54.853 2 15 10.4 100870 45
2011-10-27 06:52:35 51°14.677 2°54.838 3.8 14 10.4 100870 45
2011-10-27 06:52:40 51°14.689 2°54.822 3.2 12 10.4 100870 46
2011-10-27 06:52:45 51°14.701 2°54.807 3.8 19 10.4 100870 46
2011-10-27 06:52:50 51°14.714 2°54.791 3.3 17 10.4 100870 44
2011-10-27 06:52:55 51°14.726 2°54.775 3 22 10.4 100870 44
2011-10-27 06:53:00 51°14.738 2°54.761 3.4 17 10.4 100870 45
2011-10-27 06:53:05 51°14.75 2°54.746 2.7 15 10.4 100870 45
2011-10-27 06:53:10 51°14.763 2°54.731 2.4 18 10.4 100870 46
2011-10-27 06:53:15 51°14.775 2°54.715 2.9 16 10.4 100870 46
2011-10-27 06:53:20 51°14.787 2°54.699 2.7 20 10.4 100870 45
2011-10-27 06:53:25 51°14.799 2°54.684 3.4 27 10.4 100870 45
2011-10-27 06:53:30 51°14.812 2°54.668 4.4 25 10.4 100870 46
2011-10-27 06:53:35 51°14.825 2°54.653 4.3 21 10.4 100870 46
2011-10-27 06:53:40 51°14.838 2°54.637 4 17 10.4 100870 46
2011-10-27 06:53:45 51°14.852 2°54.622 2.3 14 10.4 100870 46
2011-10-27 06:53:50 51°14.865 2°54.607 3.1 12 10.4 100870 46
2011-10-27 06:53:55 51°14.879 2°54.592 4.4 11 10.4 100870 46
2011-10-27 06:54:00 51°14.893 2°54.577 4.3 15 10.4 100870 46
2011-10-27 06:54:05 51°14.907 2°54.561 4 8 10.4 100870 46
2011-10-27 06:54:10 51°14.92 2°54.545 3.6 11 10.4 100870 45
2011-10-27 06:54:15 51°14.933 2°54.528 3.2 21 10.4 100870 45
2011-10-27 06:54:20 51°14.946 2°54.511 3.6 22 10.4 100870 47
2011-10-27 06:54:25 51°14.959 2°54.493 2.9 27 10.4 100870 47
2011-10-27 06:54:30 51°14.972 2°54.476 2.7 29 10.4 100870 46
2011-10-27 06:54:35 51°14.985 2°54.458 3.5 10 10.4 100870 46
2011-10-27 06:54:40 51°14.997 2°54.44 3.2 16 10.4 100870 46
2011-10-27 06:54:45 51°15.01 2°54.423 3.1 18 10.4 100870 46
2011-10-27 06:54:50 51°15.024 2°54.406 3.5 18 10.4 100880 46
2011-10-27 06:54:55 51°15.037 2°54.39 2.7 19 10.4 100880 46
2011-10-27 06:55:00 51°15.05 2°54.373 2.9 16 10.4 100880 46
2011-10-27 06:55:05 51°15.064 2°54.357 3.3 20 10.4 100880 46
2011-10-27 06:55:10 51°15.078 2°54.342 3.1 24 10.4 100880 47
2011-10-27 06:55:15 51°15.092 2°54.328 2.4 18 10.4 100880 47
2011-10-27 06:55:20 51°15.106 2°54.313 3.7 14 10.4 100880 46
2011-10-27 06:55:25 51°15.121 2°54.299 4.5 18 10.4 100880 46
2011-10-27 06:55:29 51°15.132 2°54.287 4.3 19 10.4 100880 44
2011-10-27 06:55:35 51°15.15 2°54.27 4.9 14 10.4 100880 44
2011-10-27 06:55:40 51°15.164 2°54.255 4.3 17 10.4 100880 46
2011-10-27 06:55:45 51°15.178 2°54.241 3.3 22 10.4 100880 46
2011-10-27 06:55:50 51°15.192 2°54.226 3.6 19 10.4 100870 46
2011-10-27 06:55:55 51°15.206 2°54.212 3 17 10.4 100870 46
2011-10-27 06:56:00 51°15.22 2°54.196 3.1 22 10.4 100880 47
2011-10-27 06:56:05 51°15.234 2°54.181 3.1 12 10.4 100880 47
2011-10-27 06:56:10 51°15.249 2°54.166 3.3 14 10.4 100880 47
2011-10-27 06:56:15 51°15.262 2°54.151 3 16 10.4 100880 47
2011-10-27 06:56:20 51°15.276 2°54.135 3.1 21 10.4 100880 47
2011-10-27 06:56:25 51°15.29 2°54.12 3.2 18 10.4 100880 47
2011-10-27 06:56:30 51°15.304 2°54.104 2.8 19 10.4 100880 46
2011-10-27 06:56:35 51°15.318 2°54.089 2.9 17 10.4 100880 46
2011-10-27 06:56:40 51°15.332 2°54.073 3.1 15 10.4 100880 46
2011-10-27 06:56:45 51°15.346 2°54.058 3.5 18 10.4 100880 46
2011-10-27 06:56:50 51°15.36 2°54.043 3.3 10 10.4 100880 47
2011-10-27 06:56:55 51°15.374 2°54.027 4.1 18 10.4 100880 47
2011-10-27 06:57:00 51°15.388 2°54.011 3.1 19 10.4 100880 46
2011-10-27 06:57:05 51°15.401 2°53.995 2.6 16 10.4 100880 46
2011-10-27 06:57:10 51°15.415 2°53.978 2.6 17 10.4 100880 46
2011-10-27 06:57:15 51°15.428 2°53.962 2.8 22 10.4 100880 46
2011-10-27 06:57:20 51°15.441 2°53.945 2.6 25 10.4 100880 47
2011-10-27 06:57:25 51°15.455 2°53.928 2.5 14 10.4 100880 47
2011-10-27 06:57:30 51°15.468 2°53.91 3.6 13 10.4 100880 46
2011-10-27 06:57:35 51°15.482 2°53.893 2.9 13 10.4 100880 46
2011-10-27 06:57:40 51°15.495 2°53.876 2.6 12 10.4 100880 46
2011-10-27 06:57:45 51°15.508 2°53.859 3.2 23 10.4 100880 46
2011-10-27 06:57:49 51°15.519 2°53.846 2.9 24 10.4 100890 47
2011-10-27 06:57:55 51°15.535 2°53.825 2.7 22 10.4 100890 47
2011-10-27 06:58:00 51°15.548 2°53.807 2.7 14 10.4 100880 48
2011-10-27 06:58:05 51°15.561 2°53.79 2 25 10.4 100880 48
2011-10-27 06:58:10 51°15.574 2°53.772 2.1 18 10.4 100890 46
2011-10-27 06:58:15 51°15.587 2°53.754 1.9 13 10.4 100890 46
2011-10-27 06:58:20 51°15.6 2°53.736 1.9 24 10.4 100890 47
2011-10-27 06:58:25 51°15.612 2°53.717 2.2 16 10.4 100890 47
2011-10-27 06:58:29 51°15.623 2°53.703 2.3 14 10.4 100890 47
2011-10-27 06:58:35 51°15.638 2°53.682 3.6 24 10.4 100890 47
2011-10-27 06:58:40 51°15.651 2°53.664 3.3 30 10.4 100890 47
2011-10-27 06:58:45 51°15.664 2°53.647 3.1 27 10.4 100890 47
2011-10-27 06:58:50 51°15.678 2°53.629 2.8 24 10.4 100890 48
2011-10-27 06:58:55 51°15.691 2°53.612 3.4 20 10.4 100890 48
2011-10-27 06:59:00 51°15.704 2°53.595 3.5 21 10.4 100890 47
2011-10-27 06:59:05 51°15.717 2°53.577 3.8 28 10.4 100890 47
2011-10-27 06:59:10 51°15.731 2°53.56 3.6 25 10.4 100890 48
2011-10-27 06:59:15 51°15.744 2°53.544 1.9 28 10.4 100890 48
2011-10-27 06:59:20 51°15.758 2°53.528 1.7 26 10.4 100890 47
2011-10-27 06:59:25 51°15.771 2°53.511 2.7 20 10.4 100890 47
2011-10-27 06:59:30 51°15.785 2°53.495 2.6 27 10.4 100890 47
2011-10-27 06:59:35 51°15.799 2°53.479 2.6 26 10.4 100890 47
2011-10-27 06:59:40 51°15.813 2°53.463 2.4 27 10.4 100890 48
2011-10-27 06:59:45 51°15.827 2°53.448 2.6 19 10.4 100890 48
2011-10-27 06:59:50 51°15.841 2°53.433 3.3 20 10.4 100890 47
2011-10-27 06:59:55 51°15.855 2°53.418 3.6 16 10.4 100890 47
2011-10-27 07:00:00 51°15.869 2°53.403 4 25 10.4 100890 48
2011-10-27 07:00:05 51°15.884 2°53.39 4.6 20 10.4 100890 48
2011-10-27 07:00:10 51°15.898 2°53.375 3.9 16 10.4 100890 48
2011-10-27 07:00:15 51°15.912 2°53.362 4.4 18 10.4 100890 48
2011-10-27 07:00:20 51°15.927 2°53.348 4.3 19 10.4 100880 48
2011-10-27 07:00:25 51°15.941 2°53.334 3.4 20 10.4 100880 48
2011-10-27 07:00:30 51°15.956 2°53.32 2.7 23 10.4 100880 47
2011-10-27 07:00:35 51°15.97 2°53.306 3 14 10.4 100880 47
2011-10-27 07:00:40 51°15.984 2°53.292 3.4 10 10.3 100890 47
2011-10-27 07:00:45 51°15.998 2°53.278 4.2 15 10.3 100890 47
2011-10-27 07:00:50 51°16.013 2°53.263 4.4 19 10.3 100890 45
2011-10-27 07:00:55 51°16.027 2°53.248 4 20 10.3 100890 45
2011-10-27 07:01:00 51°16.041 2°53.233 3.5 23 10.3 100890 47
2011-10-27 07:01:05 51°16.055 2°53.218 3 21 10.3 100890 47
2011-10-27 07:01:10 51°16.069 2°53.203 3.4 23 10.3 100890 48
2011-10-27 07:01:15 51°16.083 2°53.189 3.3 24 10.3 100890 48
2011-10-27 07:01:20 51°16.097 2°53.174 3.9 24 10.3 100880 48
2011-10-27 07:01:25 51°16.111 2°53.16 3.4 26 10.3 100880 48
2011-10-27 07:01:30 51°16.125 2°53.145 3.6 25 10.3 100880 48
2011-10-27 07:01:35 51°16.14 2°53.131 3.8 21 10.3 100880 48
2011-10-27 07:01:40 51°16.154 2°53.117 3.3 23 10.3 100880 47
2011-10-27 07:01:45 51°16.168 2°53.103 4 20 10.3 100880 47
2011-10-27 07:01:50 51°16.183 2°53.09 4.5 25 10.3 100890 47
2011-10-27 07:01:55 51°16.197 2°53.077 5.2 21 10.3 100890 47
2011-10-27 07:02:00 51°16.212 2°53.064 4.9 20 10.3 100880 49
2011-10-27 07:02:05 51°16.226 2°53.052 4.8 23 10.3 100880 49
2011-10-27 07:02:10 51°16.241 2°53.041 4.9 23 10.3 100880 48
2011-10-27 07:02:15 51°16.256 2°53.029 4.8 23 10.3 100880 48
2011-10-27 07:02:20 51°16.271 2°53.018 4.2 22 10.4 100880 49
2011-10-27 07:02:25 51°16.286 2°53.007 3.8 20 10.4 100880 49
2011-10-27 07:02:30 51°16.301 2°52.996 4.2 19 10.3 100880 47
2011-10-27 07:02:35 51°16.316 2°52.986 4.4 20 10.3 100880 47
2011-10-27 07:02:40 51°16.331 2°52.975 4.8 16 10.3 100880 47
2011-10-27 07:02:45 51°16.346 2°52.964 5.3 19 10.3 100880 47
2011-10-27 07:02:50 51°16.361 2°52.953 5.1 22 10.3 100880 48
2011-10-27 07:02:55 51°16.376 2°52.941 5.1 20 10.3 100880 48
2011-10-27 07:03:00 51°16.391 2°52.93 6.1 22 10.3 100880 48
2011-10-27 07:03:05 51°16.406 2°52.92 5.1 25 10.3 100880 48
2011-10-27 07:03:10 51°16.421 2°52.908 5.4 23 10.3 100880 48
2011-10-27 07:03:15 51°16.436 2°52.897 4.5 13 10.3 100880 48
2011-10-27 07:03:20 51°16.451 2°52.886 5.4 16 10.3 100880 48
2011-10-27 07:03:25 51°16.466 2°52.874 4.9 23 10.3 100880 48
2011-10-27 07:03:30 51°16.481 2°52.863 5.7 21 10.3 100870 46
2011-10-27 07:03:35 51°16.496 2°52.852 4.4 17 10.3 100870 46
2011-10-27 07:03:40 51°16.511 2°52.841 4.1 17 10.3 100870 49
2011-10-27 07:03:45 51°16.526 2°52.829 5 23 10.3 100870 49
2011-10-27 07:03:50 51°16.541 2°52.818 4.8 20 10.3 100870 48
2011-10-27 07:03:55 51°16.555 2°52.806 5.2 26 10.3 100870 48
2011-10-27 07:04:00 51°16.57 2°52.795 4.9 17 10.3 100870 48
2011-10-27 07:04:05 51°16.585 2°52.783 4.9 25 10.3 100870 48
2011-10-27 07:04:10 51°16.599 2°52.771 4.8 21 10.3 100870 49
2011-10-27 07:04:15 51°16.614 2°52.758 4.2 23 10.3 100870 49
2011-10-27 07:04:20 51°16.629 2°52.746 5.2 25 10.3 100880 48
2011-10-27 07:04:25 51°16.643 2°52.735 4.2 19 10.3 100880 48
2011-10-27 07:04:30 51°16.658 2°52.722 4.6 17 10.3 100870 49
2011-10-27 07:04:35 51°16.672 2°52.711 4.7 25 10.3 100870 49
2011-10-27 07:04:40 51°16.687 2°52.699 4.3 20 10.3 100870 48
2011-10-27 07:04:45 51°16.701 2°52.687 4.6 22 10.3 100870 48
2011-10-27 07:04:50 51°16.716 2°52.675 5.1 22 10.3 100880 48
2011-10-27 07:04:55 51°16.73 2°52.663 5.4 22 10.3 100880 48
2011-10-27 07:05:00 51°16.744 2°52.652 5 20 10.3 100870 48
2011-10-27 07:05:05 51°16.758 2°52.64 4.7 19 10.3 100870 48
2011-10-27 07:05:10 51°16.773 2°52.628 5.4 20 10.4 100870 49
2011-10-27 07:05:15 51°16.787 2°52.616 5.4 24 10.4 100870 49
2011-10-27 07:05:20 51°16.801 2°52.605 4.4 25 10.4 100870 48
2011-10-27 07:05:25 51°16.816 2°52.594 5.6 27 10.4 100870 48
2011-10-27 07:05:30 51°16.83 2°52.583 4.6 24 10.4 100880 49
2011-10-27 07:05:35 51°16.845 2°52.574 5.4 28 10.4 100880 49
2011-10-27 07:05:40 51°16.86 2°52.564 5.5 27 10.4 100880 49
2011-10-27 07:05:45 51°16.874 2°52.556 5.3 22 10.4 100880 49
2011-10-27 07:05:50 51°16.889 2°52.547 5.3 23 10.4 100870 49
2011-10-27 07:05:55 51°16.904 2°52.539 5.8 23 10.4 100870 49
2011-10-27 07:06:00 51°16.919 2°52.532 5.1 24 10.4 100870 49
2011-10-27 07:06:05 51°16.934 2°52.524 5.4 21 10.4 100870 49
2011-10-27 07:06:10 51°16.949 2°52.517 5.4 20 10.4 100870 47
2011-10-27 07:06:15 51°16.964 2°52.509 6.2 18 10.4 100870 47
2011-10-27 07:06:20 51°16.979 2°52.502 6.8 17 10.4 100870 49
2011-10-27 07:06:25 51°16.994 2°52.495 6.6 20 10.4 100870 49
2011-10-27 07:06:30 51°17.009 2°52.488 6.3 18 10.4 100870 49
2011-10-27 07:06:35 51°17.024 2°52.481 5.8 19 10.4 100870 49
2011-10-27 07:06:40 51°17.039 2°52.473 6 21 10.4 100880 49
2011-10-27 07:06:45 51°17.054 2°52.466 5.9 19 10.4 100880 49
2011-10-27 07:06:49 51°17.066 2°52.46 6.4 20 10.4 100870 49
2011-10-27 07:06:55 51°17.084 2°52.452 5.9 14 10.4 100870 49
2011-10-27 07:07:00 51°17.099 2°52.445 4.6 16 10.4 100870 50
2011-10-27 07:07:05 51°17.114 2°52.439 6.7 19 10.4 100870 50
2011-10-27 07:07:09 51°17.126 2°52.434 6.3 19 10.4 100870 50
2011-10-27 07:07:15 51°17.145 2°52.425 5.6 20 10.4 100870 50
2011-10-27 07:07:20 51°17.16 2°52.419 6 20 10.4 100870 50
2011-10-27 07:07:25 51°17.175 2°52.412 6.3 22 10.4 100870 50
2011-10-27 07:07:30 51°17.19 2°52.406 5.8 17 10.5 100870 50
2011-10-27 07:07:35 51°17.205 2°52.398 5.8 18 10.5 100870 50
2011-10-27 07:07:40 51°17.22 2°52.391 7.2 20 10.5 100870 50
2011-10-27 07:07:45 51°17.235 2°52.383 6.2 22 10.5 100870 50
2011-10-27 07:07:50 51°17.25 2°52.375 6 18 10.4 100870 50
2011-10-27 07:07:55 51°17.264 2°52.366 6.1 23 10.4 100870 50
2011-10-27 07:08:00 51°17.279 2°52.358 5.9 21 10.5 100870 50
2011-10-27 07:08:05 51°17.294 2°52.349 5 16 10.5 100870 50
2011-10-27 07:08:10 51°17.309 2°52.342 6 16 10.4 100870 49
2011-10-27 07:08:15 51°17.324 2°52.334 6.9 22 10.4 100870 49
2011-10-27 07:08:20 51°17.339 2°52.328 7.8 19 10.4 100870 49
2011-10-27 07:08:25 51°17.354 2°52.322 7.4 15 10.4 100870 49
2011-10-27 07:08:30 51°17.369 2°52.317 6.3 21 10.4 100870 49
2011-10-27 07:08:35 51°17.385 2°52.312 7.4 17 10.4 100870 49
2011-10-27 07:08:40 51°17.4 2°52.308 7.5 18 10.4 100860 49
2011-10-27 07:08:45 51°17.415 2°52.305 6.9 13 10.4 100860 49
2011-10-27 07:08:49 51°17.427 2°52.302 8.4 17 10.4 100870 48
2011-10-27 07:08:55 51°17.446 2°52.3 8.3 12 10.4 100870 48
2011-10-27 07:09:00 51°17.461 2°52.299 7.6 14 10.4 100870 50
2011-10-27 07:09:05 51°17.477 2°52.298 8.5 13 10.4 100870 50
2011-10-27 07:09:09 51°17.489 2°52.298 9.1 12 10.4 100860 49
2011-10-27 07:09:15 51°17.507 2°52.3 9.4 10 10.4 100860 49
2011-10-27 07:09:20 51°17.522 2°52.301 7.9 8 10.4 100860 49
2011-10-27 07:09:25 51°17.538 2°52.302 9.9 11 10.4 100860 49
2011-10-27 07:09:30 51°17.553 2°52.304 8.3 12 10.4 100860 49
2011-10-27 07:09:35 51°17.568 2°52.305 9.5 15 10.4 100860 49
2011-10-27 07:09:40 51°17.583 2°52.307 8.5 12 10.4 100860 50
2011-10-27 07:09:45 51°17.598 2°52.309 7.9 14 10.4 100860 50
2011-10-27 07:09:50 51°17.613 2°52.31 9.4 15 10.4 100850 50
2011-10-27 07:09:55 51°17.628 2°52.312 7.7 15 10.4 100850 50
2011-10-27 07:10:00 51°17.644 2°52.313 7.7 10 10.4 100860 49
2011-10-27 07:10:05 51°17.659 2°52.315 10.6 11 10.4 100860 49
2011-10-27 07:10:10 51°17.674 2°52.316 9 9 10.3 100860 50
2011-10-27 07:10:15 51°17.689 2°52.317 8.9 15 10.3 100860 50
2011-10-27 07:10:20 51°17.704 2°52.319 8.7 13 10.4 100860 50
2011-10-27 07:10:25 51°17.719 2°52.32 6.9 14 10.4 100860 50
2011-10-27 07:10:30 51°17.735 2°52.321 8.6 10 10.3 100860 49
2011-10-27 07:10:35 51°17.75 2°52.323 9.4 15 10.3 100860 49
2011-10-27 07:10:40 51°17.765 2°52.324 9 14 10.3 100860 50
2011-10-27 07:10:45 51°17.78 2°52.326 7.9 10 10.3 100860 50
2011-10-27 07:10:50 51°17.795 2°52.328 9.3 14 10.4 100860 50
2011-10-27 07:10:55 51°17.81 2°52.33 8.8 16 10.4 100860 50
2011-10-27 07:11:00 51°17.826 2°52.333 9.2 13 10.4 100860 50
2011-10-27 07:11:05 51°17.841 2°52.335 8.1 13 10.4 100860 50
2011-10-27 07:11:10 51°17.856 2°52.338 9.6 16 10.4 100860 50
2011-10-27 07:11:15 51°17.871 2°52.341 8.2 10 10.4 100860 50
2011-10-27 07:11:20 51°17.886 2°52.344 11.2 9 10.3 100860 49
2011-10-27 07:11:25 51°17.901 2°52.347 11.4 11 10.3 100860 49
2011-10-27 07:11:29 51°17.913 2°52.35 11 11 10.4 100850 49
2011-10-27 07:11:35 51°17.931 2°52.356 10.7 15 10.4 100850 49
2011-10-27 07:11:40 51°17.946 2°52.36 9.9 8 10.3 100860 50
2011-10-27 07:11:45 51°17.96 2°52.365 6.9 10 10.3 100860 50
2011-10-27 07:11:50 51°17.975 2°52.37 9.7 8 10.3 100860 50
2011-10-27 07:11:55 51°17.99 2°52.376 7.2 7 10.3 100860 50
2011-10-27 07:12:00 51°18.004 2°52.382 10.8 7 10.3 100850 49
2011-10-27 07:12:05 51°18.019 2°52.387 9.9 12 10.3 100850 49
2011-10-27 07:12:10 51°18.033 2°52.393 10.2 11 10.3 100860 49
2011-10-27 07:12:15 51°18.048 2°52.399 11 9 10.3 100860 49
2011-10-27 07:12:20 51°18.062 2°52.407 9.5 9 10.3 100850 50
2011-10-27 07:12:25 51°18.076 2°52.417 6.5 -999 10.3 100850 50
2011-10-27 07:12:30 51°18.089 2°52.427 8.6 7 10.3 100850 49
2011-10-27 07:12:35 51°18.102 2°52.437 8.6 3 10.3 100850 49
2011-10-27 07:12:40 51°18.115 2°52.449 10.4 6 10.3 100850 49
2011-10-27 07:12:45 51°18.128 2°52.462 8.8 4 10.3 100850 49
2011-10-27 07:12:50 51°18.14 2°52.475 10.3 6 10.3 100850 49
2011-10-27 07:12:55 51°18.152 2°52.49 9.6 3 10.3 100850 49
2011-10-27 07:13:00 51°18.163 2°52.505 8.9 -999 10.3 100850 50
2011-10-27 07:13:05 51°18.173 2°52.521 10.8 359 10.3 100850 50
2011-10-27 07:13:10 51°18.183 2°52.538 13.2 -999 10.3 100840 49
2011-10-27 07:13:15 51°18.194 2°52.555 12.7 358 10.3 100840 49
2011-10-27 07:13:20 51°18.203 2°52.573 13.7 357 10.3 100840 50
2011-10-27 07:13:25 51°18.212 2°52.592 13.5 359 10.3 100840 50
2011-10-27 07:13:29 51°18.219 2°52.607 14 358 10.3 100840 50
2011-10-27 07:13:35 51°18.229 2°52.631 6.9 356 10.3 100840 50
2011-10-27 07:13:40 51°18.236 2°52.652 11.9 354 10.4 100830 50
2011-10-27 07:13:45 51°18.243 2°52.673 6.8 355 10.4 100830 50
2011-10-27 07:13:49 51°18.248 2°52.69 13 354 10.4 100830 49
2011-10-27 07:13:55 51°18.256 2°52.716 16.6 355 10.4 100830 49
2011-10-27 07:14:00 51°18.262 2°52.738 14.7 352 10.3 100830 49
2011-10-27 07:14:05 51°18.268 2°52.759 7.1 352 10.3 100830 49
2011-10-27 07:14:10 51°18.273 2°52.781 13.4 353 10.3 100820 48
2011-10-27 07:14:15 51°18.279 2°52.804 12.7 354 10.3 100820 48
2011-10-27 07:14:20 51°18.283 2°52.826 11.4 354 10.3 100820 49
2011-10-27 07:14:25 51°18.288 2°52.849 7.3 352 10.3 100820 49
2011-10-27 07:14:30 51°18.293 2°52.872 13.6 353 10.3 100830 49
2011-10-27 07:14:35 51°18.298 2°52.894 6.8 354 10.3 100830 49
2011-10-27 07:14:40 51°18.303 2°52.917 14.5 354 10.3 100830 50
2011-10-27 07:14:45 51°18.308 2°52.94 9.8 350 10.3 100830 50
2011-10-27 07:14:49 51°18.312 2°52.958 12 352 10.3 100830 49
2011-10-27 07:14:55 51°18.317 2°52.985 15.4 352 10.3 100830 49
2011-10-27 07:15:00 51°18.322 2°53.008 15.2 351 10.3 100810 49
2011-10-27 07:15:05 51°18.326 2°53.031 12.1 351 10.3 100810 49
2011-10-27 07:15:10 51°18.33 2°53.054 13.9 352 10.3 100820 50
2011-10-27 07:15:15 51°18.335 2°53.078 12.6 352 10.3 100820 50
2011-10-27 07:15:20 51°18.339 2°53.101 14.1 349 10.4 100830 50
2011-10-27 07:15:25 51°18.344 2°53.124 14.9 350 10.4 100830 50
2011-10-27 07:15:30 51°18.348 2°53.147 18.7 350 10.4 100830 49
2011-10-27 07:15:35 51°18.353 2°53.17 13.3 352 10.4 100830 49
2011-10-27 07:15:40 51°18.357 2°53.193 16 353 10.3 100820 49
2011-10-27 07:15:45 51°18.362 2°53.216 12.4 350 10.3 100820 49
2011-10-27 07:15:50 51°18.366 2°53.239 13.7 352 10.3 100830 49
2011-10-27 07:15:55 51°18.371 2°53.262 6.5 354 10.3 100830 49
2011-10-27 07:16:00 51°18.376 2°53.284 14.1 353 10.3 100830 49
2011-10-27 07:16:05 51°18.381 2°53.307 13.4 355 10.3 100830 49
2011-10-27 07:16:10 51°18.387 2°53.329 14.8 350 10.3 100820 49
2011-10-27 07:16:15 51°18.392 2°53.352 12.5 352 10.3 100820 49
2011-10-27 07:16:20 51°18.397 2°53.374 13.8 352 10.3 100820 49
2011-10-27 07:16:25 51°18.403 2°53.396 6.5 352 10.3 100820 49
2011-10-27 07:16:30 51°18.408 2°53.418 12.4 353 10.3 100820 49
2011-10-27 07:16:35 51°18.414 2°53.441 11.8 353 10.3 100820 49
2011-10-27 07:16:40 51°18.42 2°53.463 12.9 354 10.3 100830 49
2011-10-27 07:16:45 51°18.425 2°53.485 6.5 355 10.3 100830 49
2011-10-27 07:16:50 51°18.431 2°53.508 12.3 353 10.3 100820 47
2011-10-27 07:16:55 51°18.436 2°53.53 15.3 353 10.3 100820 47
2011-10-27 07:17:00 51°18.442 2°53.552 13.5 352 10.3 100820 49
2011-10-27 07:17:05 51°18.448 2°53.574 14.8 356 10.3 100820 49
2011-10-27 07:17:10 51°18.453 2°53.597 13.8 355 10.4 100820 49
2011-10-27 07:17:15 51°18.459 2°53.618 14.3 354 10.4 100820 49
2011-10-27 07:17:20 51°18.465 2°53.64 13.9 353 10.4 100830 49
2011-10-27 07:17:25 51°18.471 2°53.662 13.1 354 10.4 100830 49
2011-10-27 07:17:30 51°18.477 2°53.684 11.7 353 10.3 100820 48
2011-10-27 07:17:35 51°18.483 2°53.706 12.7 353 10.3 100820 48
2011-10-27 07:17:40 51°18.489 2°53.728 12.4 353 10.3 100830 49
2011-10-27 07:17:45 51°18.495 2°53.75 13.7 354 10.3 100830 49
2011-10-27 07:17:50 51°18.501 2°53.772 7.4 354 10.4 100830 48
2011-10-27 07:17:55 51°18.507 2°53.794 16.1 353 10.4 100830 48
2011-10-27 07:18:00 51°18.513 2°53.816 6.5 357 10.4 100830 50
2011-10-27 07:18:05 51°18.519 2°53.838 16.6 355 10.4 100830 50
2011-10-27 07:18:10 51°18.525 2°53.859 12.6 353 10.4 100830 49
2011-10-27 07:18:15 51°18.531 2°53.881 11.7 357 10.4 100830 49
2011-10-27 07:18:20 51°18.538 2°53.903 14.4 356 10.3 100820 49
2011-10-27 07:18:25 51°18.545 2°53.924 6.8 356 10.3 100820 49
2011-10-27 07:18:30 51°18.552 2°53.945 16 358 10.4 100830 48
2011-10-27 07:18:35 51°18.559 2°53.966 7 355 10.4 100830 48
2011-10-27 07:18:40 51°18.566 2°53.988 12.5 356 10.4 100820 48
2011-10-27 07:18:45 51°18.573 2°54.009 6.4 355 10.4 100820 48
2011-10-27 07:18:50 51°18.58 2°54.03 6.4 354 10.4 100820 48
2011-10-27 07:18:55 51°18.587 2°54.051 6.8 354 10.4 100820 48
2011-10-27 07:19:00 51°18.594 2°54.072 6.8 356 10.4 100830 48
2011-10-27 07:19:05 51°18.601 2°54.093 6.9 355 10.4 100830 48
2011-10-27 07:19:10 51°18.608 2°54.114 13.6 358 10.4 100820 48
2011-10-27 07:19:15 51°18.615 2°54.135 14.3 356 10.4 100820 48
2011-10-27 07:19:20 51°18.623 2°54.156 14.4 355 10.4 100850 49
2011-10-27 07:19:25 51°18.63 2°54.178 12.7 353 10.4 100850 49
2011-10-27 07:19:30 51°18.636 2°54.199 11.7 354 10.4 100840 47
2011-10-27 07:19:35 51°18.643 2°54.22 6.8 355 10.4 100840 47
2011-10-27 07:19:40 51°18.651 2°54.241 16.1 356 10.4 100840 49
2011-10-27 07:19:45 51°18.658 2°54.262 12.4 356 10.4 100840 49
2011-10-27 07:19:50 51°18.665 2°54.283 12.1 355 10.4 100840 49
2011-10-27 07:19:55 51°18.672 2°54.305 5.6 353 10.4 100840 49
2011-10-27 07:20:00 51°18.679 2°54.326 6.3 355 10.4 100840 49
2011-10-27 07:20:05 51°18.686 2°54.347 11.2 352 10.4 100840 49
2011-10-27 07:20:10 51°18.693 2°54.368 6.5 355 10.4 100840 49
2011-10-27 07:20:15 51°18.7 2°54.39 12.8 354 10.4 100840 49
2011-10-27 07:20:20 51°18.706 2°54.411 6 351 10.5 100850 49
2011-10-27 07:20:25 51°18.713 2°54.433 13.9 350 10.5 100850 49
2011-10-27 07:20:29 51°18.718 2°54.45 6.9 353 10.4 100840 49
2011-10-27 07:20:35 51°18.725 2°54.477 7.3 353 10.4 100840 49
2011-10-27 07:20:40 51°18.731 2°54.498 13.2 354 10.5 100840 50
2011-10-27 07:20:45 51°18.737 2°54.521 16 350 10.5 100840 50
2011-10-27 07:20:50 51°18.743 2°54.543 6.9 351 10.4 100840 49
2011-10-27 07:20:55 51°18.748 2°54.565 12.5 352 10.4 100840 49
2011-10-27 07:21:00 51°18.754 2°54.588 14.6 351 10.4 100850 49
2011-10-27 07:21:05 51°18.759 2°54.61 7.3 353 10.4 100850 49
2011-10-27 07:21:10 51°18.764 2°54.633 13.8 353 10.4 100840 49
2011-10-27 07:21:15 51°18.769 2°54.655 12.8 353 10.4 100840 49
2011-10-27 07:21:20 51°18.774 2°54.678 12.5 353 10.4 100840 49
2011-10-27 07:21:25 51°18.78 2°54.7 11.7 351 10.4 100840 49
2011-10-27 07:21:30 51°18.785 2°54.723 7.4 353 10.4 100840 48
2011-10-27 07:21:35 51°18.791 2°54.745 14.5 355 10.4 100840 48
2011-10-27 07:21:40 51°18.796 2°54.767 15.9 355 10.4 100840 49
2011-10-27 07:21:45 51°18.802 2°54.79 13.4 353 10.4 100840 49
2011-10-27 07:21:50 51°18.808 2°54.812 14.8 355 10.4 100840 49
2011-10-27 07:21:55 51°18.813 2°54.834 13.2 354 10.4 100840 49
2011-10-27 07:22:00 51°18.819 2°54.856 6.3 351 10.3 100840 48
2011-10-27 07:22:05 51°18.825 2°54.879 15.6 351 10.3 100840 48
2011-10-27 07:22:10 51°18.831 2°54.9 11.4 351 10.3 100830 47
2011-10-27 07:22:15 51°18.836 2°54.923 15.9 350 10.3 100830 47
2011-10-27 07:22:20 51°18.842 2°54.945 12.2 352 10.4 100840 49
2011-10-27 07:22:25 51°18.847 2°54.967 14.9 353 10.4 100840 49
2011-10-27 07:22:29 51°18.852 2°54.985 15.5 354 10.4 100840 49
2011-10-27 07:22:35 51°18.859 2°55.012 15.3 355 10.4 100840 49
2011-10-27 07:22:40 51°18.865 2°55.034 15 355 10.4 100840 49
2011-10-27 07:22:45 51°18.871 2°55.056 13.6 356 10.4 100840 49
2011-10-27 07:22:49 51°18.876 2°55.073 13.4 358 10.4 100840 49
2011-10-27 07:22:55 51°18.883 2°55.099 12.7 357 10.4 100840 49
2011-10-27 07:23:00 51°18.89 2°55.121 6.9 358 10.4 100830 49
2011-10-27 07:23:05 51°18.897 2°55.142 14.7 355 10.4 100830 49
2011-10-27 07:23:10 51°18.904 2°55.163 13.4 354 10.4 100840 50
2011-10-27 07:23:15 51°18.911 2°55.184 13.3 358 10.4 100840 50
2011-10-27 07:23:20 51°18.917 2°55.206 12.7 356 10.4 100830 49
2011-10-27 07:23:25 51°18.924 2°55.227 10.1 353 10.4 100830 49
2011-10-27 07:23:30 51°18.93 2°55.249 12.2 354 10.4 100840 49
2011-10-27 07:23:35 51°18.937 2°55.271 12.5 352 10.4 100840 49
2011-10-27 07:23:40 51°18.943 2°55.292 12.6 353 10.4 100850 49
2011-10-27 07:23:45 51°18.949 2°55.314 13.3 356 10.4 100850 49
2011-10-27 07:23:50 51°18.956 2°55.335 12.5 355 10.4 100850 49
2011-10-27 07:23:55 51°18.963 2°55.357 7.2 356 10.4 100850 49
2011-10-27 07:24:00 51°18.969 2°55.378 12 357 10.4 100840 49
2011-10-27 07:24:05 51°18.976 2°55.4 6.7 354 10.4 100840 49
2011-10-27 07:24:10 51°18.983 2°55.421 10.5 355 10.4 100840 48
2011-10-27 07:24:15 51°18.989 2°55.443 13.2 354 10.4 100840 48
2011-10-27 07:24:20 51°18.995 2°55.464 7.3 352 10.4 100840 49
2011-10-27 07:24:25 51°19.001 2°55.486 13.1 353 10.4 100840 49
2011-10-27 07:24:29 51°19.006 2°55.504 11.7 350 10.4 100840 48
2011-10-27 07:24:35 51°19.012 2°55.531 13.6 351 10.4 100840 48
2011-10-27 07:24:40 51°19.018 2°55.553 6.7 350 10.4 100850 49
2011-10-27 07:24:45 51°19.023 2°55.575 17.3 351 10.4 100850 49
2011-10-27 07:24:49 51°19.027 2°55.593 13.5 352 10.4 100840 47
2011-10-27 07:24:55 51°19.034 2°55.62 13.8 352 10.4 100840 47
2011-10-27 07:25:00 51°19.039 2°55.642 14.9 353 10.4 100840 49
2011-10-27 07:25:05 51°19.045 2°55.664 13.8 352 10.4 100840 49
2011-10-27 07:25:09 51°19.05 2°55.682 12.6 352 10.3 100840 48
2011-10-27 07:25:15 51°19.057 2°55.708 14.3 352 10.3 100840 48
2011-10-27 07:25:20 51°19.063 2°55.73 13.3 352 10.3 100840 49
2011-10-27 07:25:25 51°19.069 2°55.752 14.3 353 10.3 100840 49
2011-10-27 07:25:29 51°19.073 2°55.77 16.6 355 10.3 100840 49
2011-10-27 07:25:35 51°19.081 2°55.795 11.9 354 10.3 100840 49
2011-10-27 07:25:40 51°19.087 2°55.817 12.2 353 10.3 100840 49
2011-10-27 07:25:45 51°19.093 2°55.839 14.2 355 10.3 100840 49
2011-10-27 07:25:50 51°19.1 2°55.86 14.9 355 10.3 100840 49
2011-10-27 07:25:55 51°19.106 2°55.882 13.7 353 10.3 100840 49
2011-10-27 07:26:00 51°19.112 2°55.903 6.1 354 10.3 100850 48
2011-10-27 07:26:05 51°19.119 2°55.925 12.6 355 10.3 100850 48
2011-10-27 07:26:10 51°19.126 2°55.946 13.7 353 10.3 100840 49
2011-10-27 07:26:15 51°19.132 2°55.967 11.9 352 10.3 100840 49
2011-10-27 07:26:20 51°19.14 2°55.988 13.5 353 10.4 100840 50
2011-10-27 07:26:25 51°19.146 2°56.009 13.9 352 10.4 100840 50
2011-10-27 07:26:30 51°19.153 2°56.031 13.2 350 10.3 100840 48
2011-10-27 07:26:35 51°19.159 2°56.052 12.1 357 10.3 100840 48
2011-10-27 07:26:40 51°19.166 2°56.073 6.9 355 10.4 100840 49
2011-10-27 07:26:45 51°19.172 2°56.095 10.2 351 10.4 100840 49
2011-10-27 07:26:49 51°19.177 2°56.112 6.5 351 10.4 100850 50
2011-10-27 07:26:55 51°19.185 2°56.138 14.9 351 10.4 100850 50
2011-10-27 07:27:00 51°19.191 2°56.16 11.6 352 10.4 100850 49
2011-10-27 07:27:05 51°19.198 2°56.181 6.4 352 10.4 100850 49
2011-10-27 07:27:10 51°19.204 2°56.203 6.8 350 10.4 100850 49
2011-10-27 07:27:15 51°19.21 2°56.224 13.7 353 10.4 100850 49
2011-10-27 07:27:20 51°19.216 2°56.246 12.1 350 10.4 100840 49
2011-10-27 07:27:25 51°19.222 2°56.268 13.2 353 10.4 100840 49
2011-10-27 07:27:30 51°19.229 2°56.289 12.7 353 10.3 100840 47
2011-10-27 07:27:35 51°19.234 2°56.311 15.1 351 10.3 100840 47
2011-10-27 07:27:40 51°19.241 2°56.333 15.6 351 10.3 100840 49
2011-10-27 07:27:45 51°19.247 2°56.355 12.4 352 10.3 100840 49
2011-10-27 07:27:50 51°19.253 2°56.377 6.4 351 10.3 100840 49
2011-10-27 07:27:55 51°19.258 2°56.399 14.3 352 10.3 100840 49
2011-10-27 07:28:00 51°19.265 2°56.42 14 350 10.3 100840 49
2011-10-27 07:28:05 51°19.27 2°56.442 12.1 352 10.3 100840 49
2011-10-27 07:28:10 51°19.276 2°56.464 10.6 353 10.2 100840 48
2011-10-27 07:28:15 51°19.282 2°56.485 14 353 10.2 100840 48
2011-10-27 07:28:20 51°19.288 2°56.507 12.9 352 10.3 100840 49
2011-10-27 07:28:25 51°19.294 2°56.529 11.7 352 10.3 100840 49
2011-10-27 07:28:30 51°19.3 2°56.551 6.3 352 10.2 100850 49
2011-10-27 07:28:35 51°19.305 2°56.572 11.7 352 10.2 100850 49
2011-10-27 07:28:40 51°19.311 2°56.594 12.8 351 10.2 100850 49
2011-10-27 07:28:45 51°19.318 2°56.615 14.9 352 10.2 100850 49
2011-10-27 07:28:50 51°19.323 2°56.637 14.7 352 10.2 100850 48
2011-10-27 07:28:55 51°19.329 2°56.659 13.8 352 10.2 100850 48
2011-10-27 07:29:00 51°19.335 2°56.681 12.6 353 10.2 100850 50
2011-10-27 07:29:05 51°19.341 2°56.702 6.4 351 10.2 100850 50
2011-10-27 07:29:10 51°19.346 2°56.724 6 351 10.2 100850 49
2011-10-27 07:29:15 51°19.352 2°56.745 13.5 353 10.2 100850 49
2011-10-27 07:29:20 51°19.358 2°56.767 13.2 350 10.1 100840 49
2011-10-27 07:29:25 51°19.364 2°56.789 12.2 352 10.1 100840 49
2011-10-27 07:29:30 51°19.37 2°56.81 6.2 353 10.2 100850 50
2011-10-27 07:29:35 51°19.377 2°56.831 13.1 354 10.2 100850 50
2011-10-27 07:29:40 51°19.383 2°56.852 6.4 352 10.2 100850 49
2011-10-27 07:29:45 51°19.39 2°56.873 12.6 356 10.2 100850 49
2011-10-27 07:29:50 51°19.396 2°56.894 13 355 10.1 100850 49
2011-10-27 07:29:55 51°19.403 2°56.914 13 350 10.1 100850 49
2011-10-27 07:30:00 51°19.41 2°56.935 6.3 355 10.1 100840 49
2011-10-27 07:30:05 51°19.417 2°56.956 6.3 354 10.1 100840 49
2011-10-27 07:30:10 51°19.424 2°56.976 13.4 354 10.1 100850 47
2011-10-27 07:30:15 51°19.431 2°56.997 10.2 353 10.1 100850 47
2011-10-27 07:30:20 51°19.437 2°57.018 10.3 352 10.1 100850 49
2011-10-27 07:30:25 51°19.444 2°57.039 12 351 10.1 100850 49
2011-10-27 07:30:30 51°19.451 2°57.06 6.4 353 10.1 100850 50
2011-10-27 07:30:35 51°19.457 2°57.081 12.3 354 10.1 100850 50
2011-10-27 07:30:40 51°19.464 2°57.102 11.7 354 10.1 100850 49
2011-10-27 07:30:45 51°19.47 2°57.123 11.5 354 10.1 100850 49
2011-10-27 07:30:50 51°19.477 2°57.144 6.6 355 10.1 100850 50
2011-10-27 07:30:55 51°19.483 2°57.165 13.9 352 10.1 100850 50
2011-10-27 07:31:00 51°19.49 2°57.186 15.1 353 10.1 100860 49
2011-10-27 07:31:05 51°19.496 2°57.208 6.1 351 10.1 100860 49
2011-10-27 07:31:10 51°19.502 2°57.229 10.9 351 10.1 100850 50
2011-10-27 07:31:15 51°19.508 2°57.25 11 353 10.1 100850 50
2011-10-27 07:31:20 51°19.515 2°57.271 6 352 10.1 100850 49
2011-10-27 07:31:25 51°19.522 2°57.292 14.7 356 10.1 100850 49
2011-10-27 07:31:29 51°19.527 2°57.309 6.2 350 10.1 100870 49
2011-10-27 07:31:35 51°19.535 2°57.334 6.1 352 10.1 100870 49
2011-10-27 07:31:40 51°19.542 2°57.355 9.5 352 10.1 100850 49
2011-10-27 07:31:45 51°19.548 2°57.377 6 352 10.1 100850 49
2011-10-27 07:31:49 51°19.553 2°57.393 6 354 10.1 100860 50
2011-10-27 07:31:55 51°19.561 2°57.419 12.7 353 10.1 100860 50
2011-10-27 07:32:00 51°19.567 2°57.441 6.2 350 10.1 100860 50
2011-10-27 07:32:05 51°19.572 2°57.463 13.3 351 10.1 100860 50
2011-10-27 07:32:10 51°19.578 2°57.485 12.7 353 10 100860 50
2011-10-27 07:32:15 51°19.584 2°57.506 14.1 354 10 100860 50
2011-10-27 07:32:20 51°19.589 2°57.528 10.4 352 10 100870 49
2011-10-27 07:32:25 51°19.595 2°57.55 6.8 351 10 100870 49
2011-10-27 07:32:30 51°19.601 2°57.571 18.1 351 10 100860 49
2011-10-27 07:32:35 51°19.607 2°57.593 10.1 351 10 100860 49
2011-10-27 07:32:40 51°19.612 2°57.615 11.5 352 10 100850 49
2011-10-27 07:32:45 51°19.618 2°57.636 14 352 10 100850 49
2011-10-27 07:32:50 51°19.623 2°57.658 13.3 353 10 100860 48
2011-10-27 07:32:55 51°19.629 2°57.68 15.8 353 10 100860 48
2011-10-27 07:33:00 51°19.634 2°57.702 6.2 352 10 100860 49
2011-10-27 07:33:05 51°19.64 2°57.723 16 352 10 100860 49
2011-10-27 07:33:10 51°19.646 2°57.745 14.9 353 10 100860 49
2011-10-27 07:33:15 51°19.653 2°57.766 6.1 354 10 100860 49
2011-10-27 07:33:20 51°19.659 2°57.787 6.8 352 10 100860 49
2011-10-27 07:33:25 51°19.666 2°57.808 12.1 355 10 100860 49
2011-10-27 07:33:29 51°19.671 2°57.824 5.6 354 10 100860 50
2011-10-27 07:33:35 51°19.679 2°57.849 12.4 353 10 100860 50
2011-10-27 07:33:40 51°19.685 2°57.871 13.5 355 10 100860 49
2011-10-27 07:33:45 51°19.692 2°57.892 11.8 353 10 100860 49
2011-10-27 07:33:49 51°19.696 2°57.909 12.9 352 10 100860 50
2011-10-27 07:33:55 51°19.704 2°57.934 6 355 10 100860 50
2011-10-27 07:34:00 51°19.711 2°57.955 11.3 355 10 100860 50
2011-10-27 07:34:05 51°19.717 2°57.977 12.7 354 10 100860 50
2011-10-27 07:34:09 51°19.722 2°57.994 11.8 351 10 100860 50
2011-10-27 07:34:15 51°19.73 2°58.019 11.8 354 10 100860 50
2011-10-27 07:34:20 51°19.735 2°58.041 6.2 352 10 100860 50
2011-10-27 07:34:25 51°19.741 2°58.063 15.3 352 10 100860 50
2011-10-27 07:34:29 51°19.745 2°58.08 12.8 352 10 100860 50
2011-10-27 07:34:35 51°19.751 2°58.107 13.9 352 10 100860 50
2011-10-27 07:34:40 51°19.757 2°58.128 11.6 352 10 100870 50
2011-10-27 07:34:45 51°19.762 2°58.15 11.5 352 10 100870 50
2011-10-27 07:34:50 51°19.767 2°58.172 15.2 354 9.9 100860 49
2011-10-27 07:34:55 51°19.772 2°58.193 4.2 351 9.9 100860 49
2011-10-27 07:35:00 51°19.777 2°58.215 4.4 351 9.9 100860 50
2011-10-27 07:35:05 51°19.782 2°58.237 12.3 352 9.9 100860 50
2011-10-27 07:35:10 51°19.787 2°58.258 11.6 352 10 100860 50
2011-10-27 07:35:15 51°19.793 2°58.28 11.9 352 10 100860 50
2011-10-27 07:35:20 51°19.798 2°58.301 11.8 352 9.9 100860 49
2011-10-27 07:35:25 51°19.803 2°58.323 12.9 352 9.9 100860 49
2011-10-27 07:35:30 51°19.808 2°58.344 12.9 354 10 100860 49
2011-10-27 07:35:35 51°19.814 2°58.366 11.6 353 10 100860 49
2011-10-27 07:35:40 51°19.82 2°58.387 12.9 355 10 100870 51
2011-10-27 07:35:45 51°19.826 2°58.408 12.7 355 10 100870 51
2011-10-27 07:35:49 51°19.831 2°58.425 14.6 354 10 100860 50
2011-10-27 07:35:55 51°19.838 2°58.45 12.1 353 10 100860 50
2011-10-27 07:36:00 51°19.845 2°58.47 6.3 356 10 100860 50
2011-10-27 07:36:05 51°19.851 2°58.491 12.4 355 10 100860 50
2011-10-27 07:36:10 51°19.857 2°58.512 5.9 353 10 100860 49
2011-10-27 07:36:15 51°19.864 2°58.532 12 354 10 100860 49
2011-10-27 07:36:20 51°19.871 2°58.553 11.2 355 9.9 100860 49
2011-10-27 07:36:25 51°19.877 2°58.574 13.4 354 9.9 100860 49
2011-10-27 07:36:30 51°19.883 2°58.595 6.9 354 9.9 100860 49
2011-10-27 07:36:35 51°19.89 2°58.615 11.3 353 9.9 100860 49
2011-10-27 07:36:40 51°19.896 2°58.636 16.1 356 9.9 100860 50
2011-10-27 07:36:45 51°19.902 2°58.657 15.6 354 9.9 100860 50
2011-10-27 07:36:50 51°19.907 2°58.679 6.1 351 9.9 100860 49
2011-10-27 07:36:55 51°19.912 2°58.7 10.9 352 9.9 100860 49
2011-10-27 07:37:00 51°19.918 2°58.721 6.8 353 9.9 100860 50
2011-10-27 07:37:05 51°19.923 2°58.743 15.6 353 9.9 100860 50
2011-10-27 07:37:10 51°19.929 2°58.764 15.4 353 9.9 100860 49
2011-10-27 07:37:15 51°19.934 2°58.785 6.8 353 9.9 100860 49
2011-10-27 07:37:20 51°19.94 2°58.806 12.5 351 9.9 100850 49
2011-10-27 07:37:25 51°19.945 2°58.828 6.7 353 9.9 100850 49
2011-10-27 07:37:30 51°19.95 2°58.849 6.9 351 9.9 100860 50
2011-10-27 07:37:35 51°19.955 2°58.871 6.8 352 9.9 100860 50
2011-10-27 07:37:40 51°19.96 2°58.892 12.2 353 9.9 100850 49
2011-10-27 07:37:45 51°19.965 2°58.913 15.5 354 9.9 100850 49
2011-10-27 07:37:50 51°19.971 2°58.935 14 354 9.9 100860 49
2011-10-27 07:37:55 51°19.976 2°58.956 11.5 351 9.9 100860 49
2011-10-27 07:38:00 51°19.982 2°58.977 11.4 351 9.9 100850 49
2011-10-27 07:38:05 51°19.987 2°58.998 10.6 353 9.9 100850 49
2011-10-27 07:38:10 51°19.993 2°59.019 6 353 9.9 100860 48
2011-10-27 07:38:15 51°19.998 2°59.04 12.2 352 9.9 100860 48
2011-10-27 07:38:20 51°20.004 2°59.061 6.2 354 9.9 100860 49
2011-10-27 07:38:25 51°20.01 2°59.082 7.2 352 9.9 100860 49
2011-10-27 07:38:30 51°20.016 2°59.103 12 353 10 100860 50
2011-10-27 07:38:35 51°20.022 2°59.123 14.2 353 10 100860 50
2011-10-27 07:38:40 51°20.028 2°59.144 11.9 355 10 100860 50
2011-10-27 07:38:45 51°20.034 2°59.165 10.2 354 10 100860 50
2011-10-27 07:38:50 51°20.041 2°59.185 14.7 355 10 100860 49
2011-10-27 07:38:55 51°20.047 2°59.205 6.5 352 10 100860 49
2011-10-27 07:39:00 51°20.054 2°59.226 12.5 353 10 100850 49
2011-10-27 07:39:05 51°20.06 2°59.246 12.4 355 10 100850 49
2011-10-27 07:39:10 51°20.066 2°59.267 17 355 10 100860 49
2011-10-27 07:39:15 51°20.072 2°59.287 5.9 354 10 100860 49
2011-10-27 07:39:20 51°20.078 2°59.307 12.3 355 10 100860 49
2011-10-27 07:39:25 51°20.084 2°59.328 6.5 354 10 100860 49
2011-10-27 07:39:30 51°20.09 2°59.348 11.9 352 9.9 100860 49
2011-10-27 07:39:35 51°20.096 2°59.368 12.2 354 9.9 100860 49
2011-10-27 07:39:40 51°20.102 2°59.388 11.4 354 10 100860 49
2011-10-27 07:39:45 51°20.108 2°59.409 10.8 351 10 100860 49
2011-10-27 07:39:50 51°20.114 2°59.43 6.9 354 10 100850 49
2011-10-27 07:39:55 51°20.119 2°59.451 7.4 355 10 100850 49
2011-10-27 07:40:00 51°20.125 2°59.471 7.1 355 10 100860 49
2011-10-27 07:40:05 51°20.131 2°59.492 14.6 353 10 100860 49
2011-10-27 07:40:10 51°20.136 2°59.513 13.7 351 10 100860 49
2011-10-27 07:40:15 51°20.141 2°59.533 6.9 353 10 100860 49
2011-10-27 07:40:20 51°20.146 2°59.555 6.7 352 10 100850 49
2011-10-27 07:40:25 51°20.151 2°59.576 12.9 354 10 100850 49
2011-10-27 07:40:29 51°20.155 2°59.592 12.3 353 10 100850 49
2011-10-27 07:40:35 51°20.161 2°59.618 12.6 351 10 100850 49
2011-10-27 07:40:40 51°20.165 2°59.639 12.6 349 10 100860 49
2011-10-27 07:40:45 51°20.17 2°59.66 13 352 10 100860 49
2011-10-27 07:40:50 51°20.175 2°59.681 16.7 351 10 100850 48
2011-10-27 07:40:55 51°20.179 2°59.703 15.6 354 10 100850 48
2011-10-27 07:41:00 51°20.183 2°59.724 14.1 353 10 100850 49
2011-10-27 07:41:05 51°20.188 2°59.745 14.1 351 10 100850 49
2011-10-27 07:41:10 51°20.193 2°59.766 6.9 353 10 100860 49
2011-10-27 07:41:15 51°20.198 2°59.787 13 351 10 100860 49
2011-10-27 07:41:20 51°20.203 2°59.809 7 351 10 100850 49
2011-10-27 07:41:25 51°20.208 2°59.829 11.9 353 10 100850 49
2011-10-27 07:41:29 51°20.213 2°59.846 14.2 352 10 100850 49
2011-10-27 07:41:35 51°20.22 2°59.87 6.7 354 10 100850 49
2011-10-27 07:41:40 51°20.226 2°59.89 12.3 353 10 100850 49
2011-10-27 07:41:45 51°20.233 2°59.91 6.6 355 10 100850 49
2011-10-27 07:41:50 51°20.239 2°59.93 10.7 355 10 100850 49
2011-10-27 07:41:55 51°20.246 2°59.949 14.2 355 10 100850 49
2011-10-27 07:42:00 51°20.252 2°59.97 13.5 355 10 100850 49
2011-10-27 07:42:05 51°20.259 2°59.989 13.6 352 10 100850 49
2011-10-27 07:42:10 51°20.265 3°0.009 13.5 354 10.1 100850 49
2011-10-27 07:42:15 51°20.271 3°0.03 14.7 354 10.1 100850 49
2011-10-27 07:42:20 51°20.277 3°0.05 12.8 358 10.1 100860 49
2011-10-27 07:42:25 51°20.283 3°0.071 6.1 352 10.1 100860 49
2011-10-27 07:42:30 51°20.288 3°0.092 13.9 348 10.1 100840 49
2011-10-27 07:42:35 51°20.293 3°0.113 11.6 349 10.1 100840 49
2011-10-27 07:42:40 51°20.298 3°0.134 6.4 351 10.1 100850 49
2011-10-27 07:42:45 51°20.303 3°0.156 6.7 349 10.1 100850 49
2011-10-27 07:42:50 51°20.307 3°0.177 12.3 349 10.1 100850 49
2011-10-27 07:42:55 51°20.312 3°0.199 6.5 351 10.1 100850 49
2011-10-27 07:43:00 51°20.316 3°0.221 12.6 352 10.1 100850 49
2011-10-27 07:43:05 51°20.32 3°0.242 14 349 10.1 100850 49
2011-10-27 07:43:10 51°20.324 3°0.264 10.8 350 10.1 100850 49
2011-10-27 07:43:15 51°20.329 3°0.285 11.8 349 10.1 100850 49
2011-10-27 07:43:20 51°20.333 3°0.306 6.6 352 10.1 100850 48
2011-10-27 07:43:25 51°20.338 3°0.328 13.2 351 10.1 100850 48
2011-10-27 07:43:30 51°20.343 3°0.349 13.8 352 10.1 100860 47
2011-10-27 07:43:35 51°20.347 3°0.37 12.8 352 10.1 100860 47
2011-10-27 07:43:40 51°20.352 3°0.391 6.7 351 10.1 100860 49
2011-10-27 07:43:45 51°20.357 3°0.413 12.7 353 10.1 100860 49
2011-10-27 07:43:50 51°20.361 3°0.435 13.5 353 10.1 100850 49
2011-10-27 07:43:55 51°20.366 3°0.456 15.5 350 10.1 100850 49
2011-10-27 07:44:00 51°20.371 3°0.477 11.8 351 10.1 100860 49
2011-10-27 07:44:05 51°20.376 3°0.497 6.4 348 10.1 100860 49
2011-10-27 07:44:10 51°20.381 3°0.519 13.7 352 10.1 100850 49
2011-10-27 07:44:15 51°20.386 3°0.54 11 352 10.1 100850 49
2011-10-27 07:44:20 51°20.392 3°0.56 10.3 351 10.1 100850 49
2011-10-27 07:44:25 51°20.397 3°0.582 14.4 351 10.1 100850 49
2011-10-27 07:44:30 51°20.401 3°0.603 6.1 350 10.1 100850 49
2011-10-27 07:44:35 51°20.406 3°0.624 16.6 353 10.1 100850 49
2011-10-27 07:44:40 51°20.412 3°0.645 12.4 353 10.1 100860 49
2011-10-27 07:44:45 51°20.417 3°0.666 5.7 354 10.1 100860 49
2011-10-27 07:44:49 51°20.421 3°0.682 11.8 354 10.1 100860 48
2011-10-27 07:44:55 51°20.427 3°0.708 13.2 351 10.1 100860 48
2011-10-27 07:45:00 51°20.433 3°0.728 13.2 352 10 100850 48
2011-10-27 07:45:05 51°20.438 3°0.749 6.8 353 10 100850 48
2011-10-27 07:45:10 51°20.444 3°0.769 14.1 355 10 100850 49
2011-10-27 07:45:15 51°20.449 3°0.79 14.4 353 10 100850 49
2011-10-27 07:45:20 51°20.454 3°0.812 12.4 355 10.1 100860 49
2011-10-27 07:45:25 51°20.46 3°0.832 13.3 350 10.1 100860 49
2011-10-27 07:45:30 51°20.466 3°0.852 6.4 352 10.1 100860 49
2011-10-27 07:45:35 51°20.471 3°0.873 6.5 353 10.1 100860 49
2011-10-27 07:45:40 51°20.477 3°0.893 14.7 354 10 100850 49
2011-10-27 07:45:45 51°20.482 3°0.914 11.8 352 10 100850 49
2011-10-27 07:45:50 51°20.488 3°0.934 13 351 10.1 100860 49
2011-10-27 07:45:55 51°20.493 3°0.955 6.3 352 10.1 100860 49
2011-10-27 07:46:00 51°20.499 3°0.976 6.6 353 10.1 100850 49
2011-10-27 07:46:05 51°20.504 3°0.996 14.6 351 10.1 100850 49
2011-10-27 07:46:10 51°20.51 3°1.017 13.2 351 10.1 100850 48
2011-10-27 07:46:15 51°20.515 3°1.039 14.5 352 10.1 100850 48
2011-10-27 07:46:20 51°20.52 3°1.059 14.9 352 10 100850 48
2011-10-27 07:46:25 51°20.526 3°1.08 6.4 352 10 100850 48
2011-10-27 07:46:30 51°20.531 3°1.101 11.2 352 10.1 100860 48
2011-10-27 07:46:35 51°20.537 3°1.122 6.3 350 10.1 100860 48
2011-10-27 07:46:40 51°20.542 3°1.143 11.2 351 10.1 100860 49
2011-10-27 07:46:45 51°20.547 3°1.164 13.3 350 10.1 100860 49
2011-10-27 07:46:50 51°20.553 3°1.185 6.6 352 10 100850 48
2011-10-27 07:46:55 51°20.558 3°1.206 13.7 351 10 100850 48
2011-10-27 07:47:00 51°20.563 3°1.228 12.8 351 10.1 100860 48
2011-10-27 07:47:05 51°20.568 3°1.249 11.8 350 10.1 100860 48
2011-10-27 07:47:09 51°20.572 3°1.266 12.9 352 10.1 100870 49
2011-10-27 07:47:15 51°20.579 3°1.291 6.5 352 10.1 100870 49
2011-10-27 07:47:20 51°20.584 3°1.312 13.3 352 10.1 100860 49
2011-10-27 07:47:25 51°20.589 3°1.333 13.8 350 10.1 100860 49
2011-10-27 07:47:29 51°20.594 3°1.35 12 351 10.1 100860 49
2011-10-27 07:47:35 51°20.6 3°1.375 11.5 351 10.1 100860 49
2011-10-27 07:47:40 51°20.605 3°1.397 6.1 352 10 100860 49
2011-10-27 07:47:45 51°20.61 3°1.418 16.6 351 10 100860 49
2011-10-27 07:47:50 51°20.616 3°1.439 13.8 351 10.1 100860 48
2011-10-27 07:47:55 51°20.622 3°1.46 6 349 10.1 100860 48
2011-10-27 07:48:00 51°20.627 3°1.481 13.5 351 10.1 100860 49
2011-10-27 07:48:05 51°20.633 3°1.502 12.2 352 10.1 100860 49
2011-10-27 07:48:10 51°20.639 3°1.523 6.2 351 10.1 100860 48
2011-10-27 07:48:15 51°20.644 3°1.544 12.7 352 10.1 100860 48
2011-10-27 07:48:20 51°20.65 3°1.565 6.3 354 10.1 100860 48
2011-10-27 07:48:25 51°20.655 3°1.586 13.4 351 10.1 100860 48
2011-10-27 07:48:30 51°20.661 3°1.607 5.8 351 10.1 100860 49
2011-10-27 07:48:35 51°20.667 3°1.628 11.7 352 10.1 100860 49
2011-10-27 07:48:40 51°20.672 3°1.65 13.2 352 10.1 100860 48
2011-10-27 07:48:45 51°20.678 3°1.671 12.4 352 10.1 100860 48
2011-10-27 07:48:50 51°20.683 3°1.692 12.4 350 10.1 100860 47
2011-10-27 07:48:55 51°20.688 3°1.713 11.4 352 10.1 100860 47
2011-10-27 07:49:00 51°20.693 3°1.734 13.5 351 10.1 100860 48
2011-10-27 07:49:05 51°20.698 3°1.756 12.1 351 10.1 100860 48
2011-10-27 07:49:09 51°20.702 3°1.773 14.5 351 10.1 100870 48
2011-10-27 07:49:15 51°20.708 3°1.799 13.2 352 10.1 100870 48
2011-10-27 07:49:20 51°20.712 3°1.821 12.3 351 10.1 100870 49
2011-10-27 07:49:25 51°20.717 3°1.843 6.6 351 10.1 100870 49
2011-10-27 07:49:29 51°20.721 3°1.86 11.4 351 10.1 100870 48
2011-10-27 07:49:35 51°20.726 3°1.886 13.1 350 10.1 100870 48
2011-10-27 07:49:40 51°20.731 3°1.908 13.5 350 10.1 100860 48
2011-10-27 07:49:45 51°20.735 3°1.93 12.8 351 10.1 100860 48
2011-10-27 07:49:50 51°20.741 3°1.951 15.3 351 10.1 100870 48
2011-10-27 07:49:55 51°20.746 3°1.972 11 352 10.1 100870 48
2011-10-27 07:50:00 51°20.751 3°1.994 11.5 353 10.1 100870 48
2011-10-27 07:50:05 51°20.756 3°2.016 11.5 352 10.1 100870 48
2011-10-27 07:50:10 51°20.761 3°2.037 6.2 352 10.1 100860 48
2011-10-27 07:50:15 51°20.767 3°2.058 12.3 352 10.1 100860 48
2011-10-27 07:50:20 51°20.772 3°2.079 11.9 349 10.1 100860 48
2011-10-27 07:50:25 51°20.778 3°2.1 6.1 352 10.1 100860 48
2011-10-27 07:50:29 51°20.782 3°2.117 11 350 10.1 100870 48
2011-10-27 07:50:35 51°20.788 3°2.143 10.8 350 10.1 100870 48
2011-10-27 07:50:40 51°20.794 3°2.165 11.9 351 10.2 100860 48
2011-10-27 07:50:45 51°20.799 3°2.186 12.2 352 10.2 100860 48
2011-10-27 07:50:50 51°20.805 3°2.207 11.2 350 10.2 100870 48
2011-10-27 07:50:55 51°20.81 3°2.229 8.7 352 10.2 100870 48
2011-10-27 07:51:00 51°20.816 3°2.25 11.4 353 10.2 100870 48
2011-10-27 07:51:05 51°20.821 3°2.272 12.4 350 10.2 100870 48
2011-10-27 07:51:10 51°20.827 3°2.293 10.4 349 10.2 100870 48
2011-10-27 07:51:15 51°20.833 3°2.314 12.6 352 10.2 100870 48
2011-10-27 07:51:20 51°20.839 3°2.336 6.3 351 10.2 100870 49
2011-10-27 07:51:25 51°20.846 3°2.357 15.1 352 10.2 100870 49
2011-10-27 07:51:30 51°20.851 3°2.378 14 352 10.3 100860 47
2011-10-27 07:51:35 51°20.857 3°2.4 12.3 352 10.3 100860 47
2011-10-27 07:51:40 51°20.863 3°2.421 11.5 352 10.3 100870 49
2011-10-27 07:51:45 51°20.869 3°2.442 13.4 350 10.3 100870 49
2011-10-27 07:51:50 51°20.875 3°2.463 10.3 350 10.3 100870 48
2011-10-27 07:51:55 51°20.881 3°2.485 13.1 351 10.3 100870 48
2011-10-27 07:52:00 51°20.887 3°2.506 12.4 353 10.2 100860 48
2011-10-27 07:52:05 51°20.892 3°2.528 11 350 10.2 100860 48
2011-10-27 07:52:10 51°20.898 3°2.549 12.7 352 10.2 100870 48
2011-10-27 07:52:15 51°20.904 3°2.571 6.1 350 10.2 100870 48
2011-10-27 07:52:20 51°20.908 3°2.593 15.3 350 10.2 100850 48
2011-10-27 07:52:25 51°20.914 3°2.615 12.9 349 10.2 100850 48
2011-10-27 07:52:30 51°20.919 3°2.637 15.5 350 10.2 100860 48
2011-10-27 07:52:35 51°20.924 3°2.659 7.4 349 10.2 100860 48
2011-10-27 07:52:40 51°20.929 3°2.681 11.8 351 10.2 100860 48
2011-10-27 07:52:45 51°20.935 3°2.702 6.2 350 10.2 100860 48
2011-10-27 07:52:50 51°20.94 3°2.724 6.4 354 10.2 100860 48
2011-10-27 07:52:55 51°20.946 3°2.746 13.4 351 10.2 100860 48
2011-10-27 07:53:00 51°20.952 3°2.767 12.5 356 10.2 100870 48
2011-10-27 07:53:05 51°20.958 3°2.788 11.4 355 10.2 100870 48
2011-10-27 07:53:10 51°20.965 3°2.808 5.9 352 10.2 100860 48
2011-10-27 07:53:15 51°20.972 3°2.829 11.6 351 10.2 100860 48
2011-10-27 07:53:20 51°20.978 3°2.85 12.9 353 10.2 100860 48
2011-10-27 07:53:25 51°20.984 3°2.871 12.3 353 10.2 100860 48
2011-10-27 07:53:30 51°20.99 3°2.892 11.4 352 10.2 100860 48
2011-10-27 07:53:35 51°20.996 3°2.914 5.7 350 10.2 100860 48
2011-10-27 07:53:40 51°21.002 3°2.935 11.1 350 10.2 100870 48
2011-10-27 07:53:45 51°21.007 3°2.957 14.7 350 10.2 100870 48
2011-10-27 07:53:49 51°21.012 3°2.974 11.2 351 10.2 100860 48
2011-10-27 07:53:55 51°21.017 3°3.001 13.2 348 10.2 100860 48
2011-10-27 07:54:00 51°21.022 3°3.023 11.1 350 10.2 100860 49
2011-10-27 07:54:05 51°21.027 3°3.045 6.2 350 10.2 100860 49
2011-10-27 07:54:09 51°21.031 3°3.062 13.6 350 10.2 100870 48
2011-10-27 07:54:15 51°21.036 3°3.089 14.9 351 10.2 100870 48
2011-10-27 07:54:20 51°21.04 3°3.111 15.8 350 10.2 100860 49
2011-10-27 07:54:25 51°21.045 3°3.133 11.6 350 10.2 100860 49
2011-10-27 07:54:29 51°21.048 3°3.151 12.3 349 10.2 100870 48
2011-10-27 07:54:35 51°21.054 3°3.177 13.4 347 10.2 100870 48
2011-10-27 07:54:40 51°21.059 3°3.199 10.9 350 10.2 100860 49
2011-10-27 07:54:45 51°21.064 3°3.222 14 349 10.2 100860 49
2011-10-27 07:54:50 51°21.068 3°3.243 6.2 349 10.2 100860 49
2011-10-27 07:54:55 51°21.073 3°3.266 6.6 351 10.2 100860 49
2011-10-27 07:55:00 51°21.077 3°3.288 5.9 351 10.2 100860 49
2011-10-27 07:55:05 51°21.082 3°3.31 12.7 351 10.2 100860 49
2011-10-27 07:55:10 51°21.087 3°3.332 11.8 350 10.2 100860 48
2011-10-27 07:55:15 51°21.092 3°3.354 6.5 349 10.2 100860 48
2011-10-27 07:55:20 51°21.097 3°3.376 6.2 349 10.2 100870 49
2011-10-27 07:55:25 51°21.102 3°3.398 12.5 348 10.2 100870 49
2011-10-27 07:55:30 51°21.108 3°3.42 12.9 348 10.2 100860 48
2011-10-27 07:55:35 51°21.112 3°3.442 6.1 348 10.2 100860 48
2011-10-27 07:55:40 51°21.117 3°3.464 11.2 350 10.2 100870 48
2011-10-27 07:55:45 51°21.122 3°3.486 6.2 352 10.2 100870 48
2011-10-27 07:55:50 51°21.128 3°3.507 14.2 352 10.2 100860 48
2011-10-27 07:55:55 51°21.132 3°3.529 6.7 350 10.2 100860 48
2011-10-27 07:56:00 51°21.138 3°3.551 16.9 351 10.2 100860 49
2011-10-27 07:56:05 51°21.144 3°3.572 12.4 351 10.2 100860 49
2011-10-27 07:56:09 51°21.149 3°3.589 13 349 10.2 100860 49
2011-10-27 07:56:15 51°21.156 3°3.614 12.6 347 10.2 100860 49
2011-10-27 07:56:20 51°21.162 3°3.635 14 350 10.1 100870 48
2011-10-27 07:56:25 51°21.168 3°3.657 15.2 351 10.1 100870 48
2011-10-27 07:56:30 51°21.175 3°3.678 12.6 351 10.1 100870 48
2011-10-27 07:56:35 51°21.181 3°3.699 13.6 351 10.1 100870 48
2011-10-27 07:56:40 51°21.187 3°3.72 11.7 351 10.1 100870 48
2011-10-27 07:56:45 51°21.193 3°3.741 6.2 351 10.1 100870 48
2011-10-27 07:56:50 51°21.198 3°3.762 12.5 348 10.1 100870 47
2011-10-27 07:56:55 51°21.205 3°3.784 11.4 351 10.1 100870 47
2011-10-27 07:57:00 51°21.211 3°3.805 6.2 353 10.1 100860 48
2011-10-27 07:57:05 51°21.217 3°3.826 12.6 349 10.1 100860 48
2011-10-27 07:57:09 51°21.222 3°3.843 16.9 352 10.1 100870 48
2011-10-27 07:57:15 51°21.229 3°3.868 13.8 352 10.1 100870 48
2011-10-27 07:57:20 51°21.235 3°3.889 12 350 10.1 100870 49
2011-10-27 07:57:25 51°21.24 3°3.911 13 349 10.1 100870 49
2011-10-27 07:57:29 51°21.245 3°3.927 12.4 350 10.1 100870 49
2011-10-27 07:57:35 51°21.251 3°3.953 12.2 350 10.1 100870 49
2011-10-27 07:57:40 51°21.257 3°3.975 6.7 349 10.1 100870 49
2011-10-27 07:57:45 51°21.261 3°3.996 13.2 352 10.1 100870 49
2011-10-27 07:57:50 51°21.266 3°4.018 10.4 349 10.2 100880 49
2011-10-27 07:57:55 51°21.271 3°4.04 9.1 350 10.2 100880 49
2011-10-27 07:58:00 51°21.276 3°4.061 13.9 349 10.2 100890 49
2011-10-27 07:58:05 51°21.281 3°4.083 6.7 350 10.2 100890 49
2011-10-27 07:58:09 51°21.285 3°4.1 14.8 352 10.1 100870 48
2011-10-27 07:58:15 51°21.291 3°4.126 11.1 349 10.1 100870 48
2011-10-27 07:58:20 51°21.296 3°4.148 14.3 351 10.1 100870 49
2011-10-27 07:58:25 51°21.3 3°4.169 6.3 351 10.1 100870 49
2011-10-27 07:58:30 51°21.305 3°4.191 12.5 350 10.1 100870 48
2011-10-27 07:58:35 51°21.31 3°4.213 11.2 350 10.1 100870 48
2011-10-27 07:58:40 51°21.315 3°4.234 18.2 352 10.1 100870 48
2011-10-27 07:58:45 51°21.321 3°4.255 12 351 10.1 100870 48
2011-10-27 07:58:50 51°21.326 3°4.276 14.8 354 10.1 100870 48
2011-10-27 07:58:55 51°21.332 3°4.297 15.8 354 10.1 100870 48
2011-10-27 07:59:00 51°21.338 3°4.318 14.4 354 10.1 100890 48
2011-10-27 07:59:05 51°21.344 3°4.339 11.7 353 10.1 100890 48
2011-10-27 07:59:10 51°21.35 3°4.359 9.7 354 10.1 100870 47
2011-10-27 07:59:15 51°21.356 3°4.38 13.2 352 10.1 100870 47
2011-10-27 07:59:20 51°21.362 3°4.401 15.7 354 10.1 100880 47
2011-10-27 07:59:25 51°21.367 3°4.422 13 355 10.1 100880 47
2011-10-27 07:59:30 51°21.373 3°4.442 14.4 354 10.1 100880 46
2011-10-27 07:59:35 51°21.379 3°4.463 11.6 353 10.1 100880 46
2011-10-27 07:59:40 51°21.385 3°4.484 6.7 351 10.2 100880 48
2011-10-27 07:59:45 51°21.391 3°4.505 11.6 352 10.2 100880 48
2011-10-27 07:59:50 51°21.397 3°4.526 12.1 350 10.2 100880 47
2011-10-27 07:59:55 51°21.402 3°4.547 7.2 352 10.2 100880 47
2011-10-27 08:00:00 51°21.408 3°4.568 6.9 352 10.2 100870 48